Regional Weather Roundup
Issued by NWS

Home | Current Version | Previous Version | Graphics & Text | Print | Product List | Glossary On
Versions: 1 2 3 4 5 6 7 8 9 10 11 12 13 14 15 16 17 18 19 20 21 22 23 24 25 26 27 28 29 30 31 32 33 34 35 36 37 38 39 40 41 42 43 44 45 46 47 48 49 50
000
ASUS43 KFSD 221902
RWRSD

WEATHER ROUNDUP FOR SOUTH DAKOTA
NATIONAL WEATHER SERVICE SIOUX FALLS SD
200 PM CDT FRI SEP 22 2017

NOTE: "FAIR" INDICATES FEW OR NO CLOUDS BELOW 12,000 FEET WITH NO
SIGNIFICANT WEATHER AND/OR OBSTRUCTIONS TO VISIBILITY.


SDZ001>005-009-010-012>017-222000-
NORTHWEST AND NORTH CENTRAL SOUTH DAKOTA

CITY           SKY/WX    TMP DP  RH WIND       PRES   REMARKS
BUFFALO          N/A     53  35  50 N14       29.85R
FAITH            N/A     55  44  66 N20G29    29.80R
MOBRIDGE       CLOUDY    63  55  75 N22G30    29.65S
$$

SDZ012>016-024>037-041>051-057-063-072>074-222000-
SOUTHWEST AND SOUTH CENTRAL SOUTH DAKOTA

CITY           SKY/WX    TMP DP  RH WIND       PRES   REMARKS
RAPID CTY ARPT NOT AVBL
PIERRE         CLOUDY    69  54  58 W20       29.69R
CUSTER         SUNNY     64  45  49 W9        29.87R
ELLSWORTH AFB  SUNNY     59  39  48 N26G36    29.83
PHILIP         LGT RAIN  63  47  55 NW26G33   29.75F
PINE RIDGE     SUNNY     65  44  46 NW9       29.85R
SPEARFISH      PTSUNNY   52  37  58 NW14G21   29.92S
WINNER         FAIR      73  53  49 W16G24    29.75R
$$

SDZ004>011-016>023-039-040-222000-
NORTHEAST SOUTH DAKOTA

CITY           SKY/WX    TMP DP  RH WIND       PRES   REMARKS
ABERDEEN       MOSUNNY   88  68  51 S14       29.61F
WATERTOWN      MOSUNNY   85  70  60 S15G25    29.69S
BROOKINGS      SUNNY     87  70  56 S23       29.72S
SISSETON         N/A     87  72  60 S18       29.64F
$$

SDZ017-020-022-023-036>040-048>070-222000-
SOUTHEAST SOUTH DAKOTA

CITY           SKY/WX    TMP DP  RH WIND       PRES   REMARKS
SIOUX FALLS    MOSUNNY   89  73  59 S20G29    29.72S HX  97
HURON          SUNNY     88  65  46 SW15G22   29.65R
CHAMBERLAIN    SUNNY     76  55  49 SW16G23   29.72R
MITCHELL       SUNNY     94  65  38 SW13G22   29.65S HX  96
YANKTON        SUNNY     93  68  43 S21G31    29.69S HX  97
$$

ABBREVIATIONS USED IN REMARKS
   TC - TEMPERATURE IN CELSIUS
  WCI - WIND CHILL INDEX
   HX - HEAT INDEX
  VSB - VISIBILITY




USA.gov is the U.S. government's official web portal to all federal, state and local government web resources and services.